Volver al catálogo

DELTA 1 DEB

ActivoSSO
NORAD 12372·DEBRIS·🇺🇸 United States

Lanzado Mar 5, 1978 desde Vandenberg Space Force Base

Loading…

Próximos Pases (próximas 24 horas)

TLE

ActualizadoSource: Space-Track

Época: Sep 14, 2026, 02:00 UTC

1 12372U 78026EP  26257.08392090  .00001259  00000-0  30223-3 0  9991
2 12372  98.4401 296.8608 0033640 296.1620  91.8701 14.54866448716543

Sigue DELTA 1 DEB en tiempo real con AllMySat

Download on the App Store